Flag for Argentina Weather past 2 weeks in Tucumán, Tucumán, Argentina

Now
57 °F

Drizzle. Fog.


Feels Like: 57 °F
Forecast: 57 / 64 °F
Wind: 2 mph from Southeast

Location: Tucuman Aerodrome

Current Time: May 26, 2015 at 9:07:24 AM

Latest Report: May 26, 2015 at 8:00 AM


Visibility: 2 mi

Pressure: 30.09 "Hg

Humidity: 94%

Dew point: 55 °F

Location of TucumánLocation

Historic Weather in Tucumán — Graph

°F

Tucumán temperature yesterday

Maximum temperature yesterday: 59 °F (at 2:00 PM)
Minimum temperature yesterday: 52 °F (at 1:00 AM)
Average temperature yesterday: 56 °F

Past Weeks' High & Low Weather Summary

 TemperatureHumidityPressure
High86 °F (May 20, 5:00 PM)100% (May 24, 12:05 AM)30.24 "Hg (May 24, 12:05 AM)
Low52 °F (May 25, 1:00 AM)46% (May 20, 5:00 PM)29.77 "Hg (May 21, 4:00 PM)
Average66 °F81%30.00 "Hg
* Reported May 11 8:00 AM — May 26 8:00 AM, Tucumán, Weather by CustomWeather, © 2015

Note: Actual official high and low records may vary slightly from our data, if they occured in-between our weather recording intervals... More about our weather records

Advertising

Tucumán weather history for previous 24 hours

 ConditionsComfort  
Time TempWeatherWind HumidityBarometerVisibility
8:00 AM
Tue, May 26
57 °FDrizzle. Fog.2 mph94%30.09 "Hg2 mi
7:00 AM57 °FDrizzle. Mostly cloudy.5 mph94%30.07 "Hg2 mi
6:00 AM57 °FMostly cloudy.5 mph94%30.07 "Hg2 mi
5:00 AM57 °FDrizzle. Mostly cloudy.2 mph94%30.04 "Hg2 mi
4:00 AM57 °FLow clouds.5 mph94%30.04 "HgN/A
3:00 AM57 °FLow clouds.7 mph94%30.07 "HgN/A
2:00 AM57 °FMostly cloudy.5 mph94%30.09 "HgN/A
1:00 AM57 °FMostly cloudy.5 mph94%30.09 "HgN/A
12:00 AM57 °FMostly cloudy.2 mph94%30.09 "HgN/A
11:00 PM
Mon, May 25
57 °FPartly cloudy.No wind88%30.09 "Hg2 mi
10:00 PM57 °FFog.2 mph94%30.07 "Hg3 mi
9:00 PM57 °FPassing clouds.6 mph94%30.07 "Hg4 mi
8:00 PM57 °FMostly cloudy.6 mph94%30.04 "Hg4 mi
7:00 PM57 °FOvercast.5 mph94%30.04 "Hg4 mi
6:00 PM59 °FMostly cloudy.5 mph82%30.04 "Hg4 mi
5:00 PM59 °FMore clouds than sun.5 mph82%30.04 "Hg4 mi
4:00 PM59 °FMore clouds than sun.3 mph88%30.04 "Hg5 mi
3:00 PM59 °FCloudy.5 mph88%30.09 "Hg5 mi
2:00 PM59 °FCloudy.No wind82%30.09 "Hg5 mi
1:00 PM57 °FMostly cloudy.No wind88%30.12 "Hg4 mi
12:00 PM57 °FPartly sunny.2 mph88%30.15 "Hg4 mi
11:00 AM55 °FBroken clouds.5 mph94%30.15 "Hg4 mi
10:00 AM55 °FFog.2 mph94%30.15 "Hg3 mi
9:00 AM55 °FSnow. Cloudy.No wind94%30.15 "Hg1 mi
Weather by CustomWeather, © 2015

See weather overviewHow to use our weather pages